Regional Weather Roundup
Issued by NWS Little Rock, AR

Home | Current Version | Previous Version | Graphics & Text | Print | Product List | Glossary On
Versions: 1 2 3 4 5 6 7 8 9 10 11 12 13 14 15 16 17 18 19 20 21 22 23 24 25 26 27 28 29 30 31 32 33 34 35 36 37 38 39 40
000
ASUS44 KLZK 272005
RWRLZK

WEATHER ROUNDUP FOR ARKANSAS
NATIONAL WEATHER SERVICE LITTLE ROCK AR
200 PM CST SAT DEC 27 2014

NOTE: "FAIR" INDICATES FEW OR NO CLOUDS BELOW 12,000 FEET WITH NO
SIGNIFICANT WEATHER AND/OR OBSTRUCTIONS TO VISIBILITY.

ARZ001-003-010-029-272100-
NORTHWEST ARKANSAS

CITY           SKY/WX    TMP DP  RH WIND       PRES   REMARKS
FAYETTEVILLE   CLOUDY    36  34  92 NW7       30.17F
FORT SMITH     CLOUDY    40  35  83 W14       30.20S
HARRISON       LGT RAIN  36  34  92 NW7       30.15F
BENTONVILLE    CLOUDY    34  28  80 N7        30.18F WCI  28
ROGERS         LGT RAIN  34  33  96 NW8       30.17F WCI  27
SILOAM SPGS    CLOUDY    34  27  75 N10       30.20F WCI  26
HIGHFILL       CLOUDY    33  32  96 NW9       30.18F WCI  25
SPRINGDALE     CLOUDY    36  34  93 NW10      30.18F
$$

ARZ004-005-016-272100-
NORTH CENTRAL ARKANSAS

CITY           SKY/WX    TMP DP  RH WIND       PRES   REMARKS
BATESVILLE     CLOUDY    46  43  87 NW8       30.13R
FLIPPIN        CLOUDY    39  34  81 NW5       30.15F
MTN HOME       CLOUDY    38  37  97 NW6       30.13F FOG
$$

ARZ040-041-272100-
WEST CENTRAL ARKANSAS

CITY           SKY/WX    TMP DP  RH WIND       PRES   REMARKS
MENA           CLOUDY    45  39  81 NW5       30.12F
MOUNT IDA      LGT RAIN  44  40  85 NW5       30.10S
$$

ARZ009-017-025-026-028-272100-
NORTHEAST ARKANSAS

CITY           SKY/WX    TMP DP  RH WIND       PRES   REMARKS
CORNING          N/A     52  50  93 N10       30.09F
JONESBORO      CLOUDY    53  52  96 N3        30.08F
NEWPORT        LGT RAIN  51  48  89 NW14      30.11F
WALNUT RIDGE   CLOUDY    52  46  82 N14       30.09S
BLYTHEVILLE    CLOUDY    51  51 100 SE6       30.10S
$$

ARZ022-023-033-042-044-272100-
CENTRAL ARKANSAS

CITY           SKY/WX    TMP DP  RH WIND       PRES   REMARKS
LITTLE ROCK    LGT RAIN  50  45  83 NW13      30.13R
N LITTLE ROCK  CLOUDY    47  46  97 N9        30.13R
JACKSONVILLE   CLOUDY    48  48 100 NW10      30.11R
SEARCY         CLOUDY    49  46  90 N5        30.13S
HOT SPRINGS    LGT RAIN  46  44  93 NW3       30.10F FOG
RUSSELLVILLE   CLOUDY    47  43  86 NW6       30.12F
CLINTON        CLOUDY    45  37  76 N5        30.16S
$$

ARZ036-272100-
EAST ARKANSAS

CITY           SKY/WX    TMP DP  RH WIND       PRES   REMARKS
WEST MEMPHIS   LGT RAIN  54  54 100 NW3       30.08R FOG
$$

ARZ050-053-066-070-073-272100-
SOUTHWEST ARKANSAS

CITY           SKY/WX    TMP DP  RH WIND       PRES   REMARKS
ARKADELPHIA    CLOUDY    49  49 100 N9        30.10S
CAMDEN         CLOUDY    52  48  87 MISG      30.07S
TEXARKANA      CLOUDY    49  47  93 N9        30.08S
EL DORADO      CLOUDY    59  57  93 N9        30.04S
DE QUEEN       CLOUDY    48  40  73 N6        30.10F
$$

ARZ056-057-069-272100-
SOUTHEAST ARKANSAS

CITY           SKY/WX    TMP DP  RH WIND       PRES   REMARKS
PINE BLUFF     LGT RAIN  52  50  93 N14G22    30.08R FOG
STUTTGART      CLOUDY    54  52  94 N8        30.08R
MONTICELLO     LGT RAIN  59  57  93 NW5       30.04R FOG

$$




USA.gov is the U.S. government's official web portal to all federal, state and local government web resources and services.